| time (UTC) | temp F | wind direction | speed MPH | gust MPH | rain 1hr in | rain 24hr in | rain mn in | humidity % | barometer mb |
| 20260510070758 | 64 | 298 | 2.0 | 3.0 | 0.00 | 0.00 | 0.00 | 82 | 1017.1 |
| 20260510070258 | 64 | 0 | 1.0 | 5.0 | 0.00 | 0.00 | 0.00 | 82 | 1017.0 |
| 20260510065758 | 64 | 330 | 1.0 | 2.0 | 0.00 | 0.00 | 0.00 | 82 | 1017.0 |
| 20260510065258 | 64 | 54 | 3.0 | 5.0 | 0.00 | 0.00 | 0.00 | 82 | 1017.0 |
| 20260510064758 | 64 | 355 | 3.0 | 5.0 | 0.00 | 0.00 | 0.00 | 84 | 1016.9 |
| 20260510064259 | 63 | 36 | 3.0 | 5.0 | 0.00 | 0.00 | 0.00 | 83 | 1017.0 |
| 20260510063759 | 63 | 55 | 4.0 | 5.0 | 0.00 | 0.00 | 0.00 | 83 | 1017.1 |
| 20260510063258 | 63 | 9 | 4.0 | 4.0 | 0.00 | 0.00 | 0.00 | 84 | 1017.1 |
| 20260510062758 | 63 | 79 | 4.0 | 7.0 | 0.00 | 0.00 | 0.00 | 83 | 1017.1 |
| 20260510062259 | 63 | 46 | 4.0 | 6.0 | 0.00 | 0.00 | 0.00 | 85 | 1017.0 |
| 20260510061759 | 63 | 17 | 3.0 | 6.0 | 0.00 | 0.00 | 0.00 | 85 | 1017.1 |
| 20260510061259 | 63 | 0 | 2.0 | 5.0 | 0.00 | 0.00 | 0.00 | 86 | 1017.2 |
| 20260510060759 | 63 | 355 | 2.0 | 4.0 | 0.00 | 0.00 | 0.00 | 87 | 1017.4 |
| 20260510060259 | 63 | 348 | 2.0 | 3.0 | 0.00 | 0.00 | 0.00 | 87 | 1017.4 |
| 20260510055759 | 62 | 318 | 2.0 | 5.0 | 0.00 | 0.00 | 0.00 | 87 | 1017.3 |
| 20260510055259 | 62 | 276 | 1.0 | 3.0 | 0.00 | 0.00 | 0.00 | 87 | 1017.4 |
| 20260510054759 | 62 | 224 | 2.0 | 3.0 | 0.00 | 0.00 | 0.00 | 88 | 1017.4 |
| 20260510054259 | 62 | 265 | 2.0 | 4.0 | 0.00 | 0.00 | 0.00 | 88 | 1017.4 |
| 20260510053759 | 61 | 349 | 2.0 | 4.0 | 0.00 | 0.00 | 0.00 | 88 | 1017.3 |
| 20260510053259 | 61 | 340 | 2.0 | 4.0 | 0.00 | 0.00 | 0.00 | 89 | 1017.3 |
| 20260510052759 | 61 | 19 | 2.0 | 6.0 | 0.00 | 0.00 | 0.00 | 89 | 1017.0 |
| 20260510052259 | 60 | 24 | 2.0 | 4.0 | 0.00 | 0.00 | 0.00 | 90 | 1017.0 |
| 20260510051759 | 60 | 32 | 2.0 | 5.0 | 0.00 | 0.00 | 0.00 | 90 | 1016.9 |
| 20260510051259 | 60 | 0 | 2.0 | 5.0 | 0.00 | 0.00 | 0.00 | 90 | 1016.9 |
| 20260510050759 | 59 | 5 | 1.0 | 4.0 | 0.00 | 0.00 | 0.00 | 91 | 1017.0 |
| 20260510050301 | 59 | 336 | 1.0 | 2.0 | 0.00 | 0.00 | 0.00 | 91 | 1017.0 |
| 20260510045759 | 59 | 336 | 2.0 | 2.0 | 0.00 | 0.00 | 0.00 | 91 | 1016.9 |
| 20260510045259 | 58 | 312 | 3.0 | 3.0 | 0.00 | 0.00 | 0.00 | 91 | 1016.8 |
| 20260510044759 | 58 | 263 | 3.0 | 4.0 | 0.00 | 0.00 | 0.00 | 91 | 1016.8 |
| 20260510044259 | 58 | 251 | 1.0 | 4.0 | 0.00 | 0.00 | 0.00 | 91 | 1016.8 |
| 20260510043759 | 58 | 327 | 2.0 | 3.0 | 0.00 | 0.00 | 0.00 | 92 | 1016.6 |
| 20260510043259 | 57 | 306 | 3.0 | 4.0 | 0.00 | 0.00 | 0.00 | 92 | 1016.6 |
| 20260510042759 | 57 | 309 | 3.0 | 4.0 | 0.00 | 0.00 | 0.00 | 92 | 1016.8 |
| 20260510042259 | 57 | 281 | 3.0 | 6.0 | 0.00 | 0.00 | 0.00 | 92 | 1016.6 |
| 20260510041759 | 57 | 276 | 3.0 | 6.0 | 0.00 | 0.00 | 0.00 | 92 | 1016.5 |
| 20260510041259 | 57 | 289 | 3.0 | 4.0 | 0.00 | 0.00 | 0.00 | 92 | 1016.4 |
| 20260510040759 | 57 | 14 | 3.0 | 4.0 | 0.00 | 0.00 | 0.00 | 92 | 1016.5 |
| 20260510040259 | 57 | 38 | 2.0 | 5.0 | 0.00 | 0.00 | 0.00 | 92 | 1016.4 |
| 20260510035759 | 57 | 355 | 1.0 | 3.0 | 0.00 | 0.00 | 0.00 | 92 | 1016.5 |
| 20260510035259 | 57 | 340 | 0.0 | 0.0 | 0.00 | 0.00 | 0.00 | 92 | 1016.5 |
| 20260510034759 | 57 | 340 | 0.0 | 0.0 | 0.00 | 0.00 | 0.00 | 92 | 1016.4 |
| 20260510034259 | 57 | 340 | 0.0 | 3.0 | 0.00 | 0.00 | 0.00 | 92 | 1016.3 |
| 20260510033759 | 56 | 338 | 0.0 | 2.0 | 0.00 | 0.00 | 0.00 | 92 | 1016.4 |
| 20260510033259 | 56 | 5 | 1.0 | 2.0 | 0.00 | 0.00 | 0.00 | 92 | 1016.5 |
| 20260510032759 | 56 | 5 | 2.0 | 3.0 | 0.00 | 0.06 | 0.00 | 92 | 1016.4 |
| 20260510032259 | 56 | 325 | 1.0 | 4.0 | 0.00 | 0.06 | 0.00 | 92 | 1016.4 |
| 20260510031759 | 56 | 355 | 0.0 | 2.0 | 0.00 | 0.06 | 0.00 | 92 | 1016.3 |
| 20260510031259 | 56 | 355 | 2.0 | 3.0 | 0.00 | 0.06 | 0.00 | 92 | 1016.2 |
| 20260510030759 | 56 | 355 | 2.0 | 3.0 | 0.00 | 0.06 | 0.00 | 92 | 1016.1 |
| 20260510030259 | 56 | 0 | 2.0 | 4.0 | 0.00 | 0.06 | 0.00 | 92 | 1016.2 |
| 20260510025759 | 57 | 9 | 2.0 | 3.0 | 0.00 | 0.06 | 0.00 | 92 | 1016.2 |
| 20260510025259 | 56 | 0 | 2.0 | 3.0 | 0.00 | 0.06 | 0.00 | 92 | 1016.2 |
| 20260510024759 | 56 | 5 | 1.0 | 3.0 | 0.00 | 0.06 | 0.00 | 92 | 1016.2 |
| 20260510024259 | 56 | 22 | 0.0 | 0.0 | 0.00 | 0.06 | 0.00 | 92 | 1016.2 |
| 20260510023759 | 56 | 22 | 1.0 | 2.0 | 0.00 | 0.06 | 0.00 | 92 | 1016.1 |
| 20260510023259 | 56 | 22 | 2.0 | 3.0 | 0.00 | 0.06 | 0.00 | 92 | 1016.1 |
| 20260510022759 | 56 | 22 | 3.0 | 5.0 | 0.00 | 0.14 | 0.00 | 92 | 1016.2 |
| 20260510022259 | 56 | 18 | 3.0 | 4.0 | 0.00 | 0.14 | 0.00 | 92 | 1016.2 |
| 20260510021759 | 57 | 348 | 4.0 | 6.0 | 0.00 | 0.14 | 0.00 | 92 | 1016.2 |
| 20260510021259 | 57 | 345 | 3.0 | 5.0 | 0.00 | 0.14 | 0.00 | 92 | 1016.3 |
| 20260510020759 | 57 | 319 | 4.0 | 5.0 | 0.00 | 0.14 | 0.00 | 92 | 1016.4 |
| 20260510020259 | 57 | 314 | 4.0 | 5.0 | 0.00 | 0.14 | 0.00 | 92 | 1016.4 |
| 20260510015759 | 57 | 296 | 3.0 | 7.0 | 0.00 | 0.14 | 0.00 | 92 | 1016.5 |
| 20260510015259 | 57 | 309 | 3.0 | 5.0 | 0.00 | 0.14 | 0.00 | 92 | 1016.4 |
| 20260510014759 | 56 | 293 | 3.0 | 4.0 | 0.00 | 0.14 | 0.00 | 92 | 1016.4 |
| 20260510014259 | 56 | 263 | 3.0 | 4.0 | 0.00 | 0.14 | 0.00 | 92 | 1016.4 |
| 20260510013759 | 56 | 273 | 3.0 | 4.0 | 0.00 | 0.14 | 0.00 | 92 | 1016.4 |
| 20260510013259 | 56 | 296 | 3.0 | 4.0 | 0.00 | 0.14 | 0.00 | 92 | 1016.3 |
| 20260510012759 | 56 | 312 | 3.0 | 4.0 | 0.00 | 0.21 | 0.00 | 92 | 1016.3 |
| 20260510012259 | 56 | 316 | 2.0 | 4.0 | 0.00 | 0.21 | 0.00 | 92 | 1016.3 |
| 20260510011759 | 56 | 315 | 2.0 | 3.0 | 0.00 | 0.21 | 0.00 | 92 | 1016.3 |
| 20260510011259 | 56 | 315 | 3.0 | 4.0 | 0.00 | 0.21 | 0.00 | 92 | 1016.4 |
| 20260510010759 | 55 | 294 | 3.0 | 4.0 | 0.00 | 0.21 | 0.00 | 92 | 1016.2 |
| 20260510010259 | 55 | 290 | 3.0 | 4.0 | 0.00 | 0.21 | 0.00 | 92 | 1016.4 |
| 20260510005759 | 55 | 296 | 3.0 | 4.0 | 0.00 | 0.21 | 0.00 | 92 | 1016.2 |
| 20260510005259 | 55 | 311 | 2.0 | 4.0 | 0.00 | 0.21 | 0.00 | 91 | 1016.3 |
| 20260510004759 | 55 | 355 | 3.0 | 4.0 | 0.00 | 0.21 | 0.00 | 92 | 1016.3 |
| 20260510004259 | 55 | 355 | 3.0 | 5.0 | 0.00 | 0.21 | 0.00 | 91 | 1016.3 |
| 20260510003759 | 56 | 346 | 1.0 | 4.0 | 0.00 | 0.21 | 0.00 | 91 | 1016.5 |
| 20260510003259 | 56 | 341 | 0.0 | 0.0 | 0.00 | 0.21 | 0.00 | 91 | 1016.6 |
| 20260510002759 | 56 | 341 | 0.0 | 0.0 | 0.00 | 0.29 | 0.00 | 91 | 1016.5 |
| 20260510002259 | 56 | 341 | 0.0 | 0.0 | 0.00 | 0.29 | 0.00 | 91 | 1016.5 |
| 20260510001759 | 56 | 341 | 0.0 | 0.0 | 0.00 | 0.29 | 0.00 | 91 | 1016.6 |
| 20260510001259 | 57 | 341 | 0.0 | 0.0 | 0.00 | 0.29 | 0.00 | 91 | 1016.7 |
| 20260510000759 | 57 | 341 | 0.0 | 0.0 | 0.00 | 0.29 | 0.00 | 91 | 1016.8 |
| 20260510000259 | 57 | 341 | 0.0 | 0.0 | 0.00 | 0.29 | 0.00 | 91 | 1016.8 |
| 20260509235759 | 57 | 341 | 0.0 | 0.0 | 0.00 | 0.29 | 0.00 | 91 | 1016.9 |
| 20260509235259 | 57 | 341 | 0.0 | 0.0 | 0.00 | 0.29 | 0.00 | 91 | 1016.9 |
| 20260509234759 | 57 | 341 | 0.0 | 0.0 | 0.00 | 0.29 | 0.00 | 91 | 1016.9 |
| 20260509234259 | 57 | 341 | 0.0 | 0.0 | 0.00 | 0.29 | 0.00 | 91 | 1017.0 |
| 20260509233759 | 57 | 341 | 0.0 | 0.0 | 0.00 | 0.29 | 0.00 | 91 | 1017.1 |
| 20260509233259 | 57 | 341 | 0.0 | 0.0 | 0.00 | 0.29 | 0.00 | 91 | 1017.1 |
| 20260509232759 | 57 | 341 | 0.0 | 0.0 | 0.00 | 0.33 | 0.00 | 91 | 1017.3 |
| 20260509232259 | 57 | 341 | 0.0 | 0.0 | 0.00 | 0.33 | 0.00 | 91 | 1017.4 |
| 20260509231759 | 57 | 341 | 0.0 | 0.0 | 0.00 | 0.33 | 0.00 | 91 | 1017.5 |
| 20260509231259 | 57 | 341 | 0.0 | 1.0 | 0.00 | 0.33 | 0.00 | 90 | 1017.5 |
| 20260509230759 | 57 | 341 | 0.0 | 0.0 | 0.00 | 0.33 | 0.00 | 91 | 1017.6 |
| 20260509230259 | 57 | 341 | 0.0 | 0.0 | 0.00 | 0.33 | 0.00 | 91 | 1017.6 |
| 20260509225759 | 57 | 341 | 0.0 | 0.0 | 0.00 | 0.33 | 0.00 | 91 | 1017.7 |
| 20260509225259 | 57 | 341 | 1.0 | 2.0 | 0.00 | 0.33 | 0.00 | 91 | 1017.6 |
| 20260509224759 | 57 | 340 | 0.0 | 0.0 | 0.00 | 0.33 | 0.00 | 90 | 1017.6 |
| 20260509224259 | 57 | 340 | 0.0 | 0.0 | 0.00 | 0.33 | 0.00 | 90 | 1017.7 |
| 20260509223759 | 57 | 340 | 1.0 | 2.0 | 0.00 | 0.33 | 0.00 | 90 | 1017.7 |
| 20260509223300 | 58 | 340 | 0.0 | 1.0 | 0.00 | 0.33 | 0.00 | 90 | 1017.9 |
| 20260509222759 | 58 | 340 | 1.0 | 1.0 | 0.00 | 0.38 | 0.00 | 89 | 1017.8 |
| 20260509222259 | 58 | 340 | 2.0 | 3.0 | 0.00 | 0.38 | 0.00 | 89 | 1017.8 |
| 20260509221759 | 58 | 341 | 2.0 | 3.0 | 0.00 | 0.38 | 0.00 | 89 | 1017.9 |
| 20260509221259 | 59 | 332 | 1.0 | 3.0 | 0.00 | 0.38 | 0.00 | 90 | 1017.8 |
| 20260509220759 | 58 | 331 | 0.0 | 2.0 | 0.00 | 0.38 | 0.00 | 90 | 1017.8 |
| 20260509220259 | 58 | 332 | 0.0 | 0.0 | 0.00 | 0.38 | 0.00 | 90 | 1017.9 |
| 20260509215759 | 58 | 332 | 0.0 | 0.0 | 0.00 | 0.38 | 0.40 | 89 | 1017.8 |
| 20260509215259 | 59 | 331 | 1.0 | 0.0 | 0.00 | 0.38 | 0.40 | 89 | 1017.9 |
| 20260509214759 | 59 | 331 | 1.0 | 2.0 | 0.00 | 0.38 | 0.40 | 89 | 1017.8 |
| 20260509214259 | 59 | 331 | 1.0 | 2.0 | 0.00 | 0.38 | 0.40 | 88 | 1017.8 |
| 20260509213759 | 59 | 332 | 1.0 | 2.0 | 0.00 | 0.38 | 0.40 | 88 | 1017.7 |
| 20260509213300 | 59 | 332 | 0.0 | 1.0 | 0.00 | 0.38 | 0.40 | 89 | 1017.7 |
| 20260509212759 | 59 | 332 | 0.0 | 0.0 | 0.00 | 0.42 | 0.40 | 88 | 1017.8 |
| 20260509212300 | 60 | 331 | 0.0 | 0.0 | 0.00 | 0.42 | 0.40 | 88 | 1017.9 |
| 20260509211800 | 60 | 331 | 1.0 | 2.0 | 0.00 | 0.42 | 0.40 | 88 | 1017.9 |
| 20260509211300 | 60 | 331 | 1.0 | 2.0 | 0.00 | 0.42 | 0.40 | 88 | 1017.8 |
| 20260509210800 | 60 | 331 | 2.0 | 2.0 | 0.00 | 0.42 | 0.40 | 88 | 1017.7 |
| 20260509210300 | 60 | 331 | 2.0 | 2.0 | 0.00 | 0.42 | 0.40 | 88 | 1017.6 |
| 20260509205800 | 60 | 331 | 1.0 | 2.0 | 0.00 | 0.42 | 0.40 | 88 | 1017.4 |
| 20260509205300 | 60 | 331 | 1.0 | 2.0 | 0.00 | 0.42 | 0.40 | 88 | 1017.4 |
| 20260509204800 | 60 | 332 | 1.0 | 2.0 | 0.00 | 0.42 | 0.40 | 88 | 1017.3 |
| 20260509204300 | 60 | 332 | 0.0 | 0.0 | 0.00 | 0.42 | 0.40 | 88 | 1017.3 |
| 20260509203800 | 60 | 332 | 0.0 | 0.0 | 0.00 | 0.42 | 0.40 | 87 | 1017.2 |
| 20260509203300 | 60 | 332 | 0.0 | 0.0 | 0.00 | 0.42 | 0.40 | 87 | 1017.2 |
| 20260509202800 | 60 | 332 | 0.0 | 1.0 | 0.00 | 0.46 | 0.40 | 87 | 1017.3 |
| 20260509202300 | 60 | 332 | 0.0 | 0.0 | 0.00 | 0.46 | 0.40 | 87 | 1017.1 |
| 20260509201800 | 60 | 332 | 0.0 | 0.0 | 0.00 | 0.46 | 0.40 | 87 | 1017.1 |
| 20260509201300 | 60 | 332 | 0.0 | 0.0 | 0.00 | 0.46 | 0.40 | 86 | 1017.2 |
| 20260509200800 | 60 | 332 | 0.0 | 0.0 | 0.00 | 0.46 | 0.40 | 86 | 1017.2 |
| 20260509200300 | 60 | 332 | 0.0 | 0.0 | 0.00 | 0.46 | 0.40 | 85 | 1017.1 |
| 20260509195800 | 61 | 332 | 1.0 | 2.0 | 0.00 | 0.46 | 0.40 | 85 | 1017.0 |
| 20260509195300 | 61 | 332 | 2.0 | 2.0 | 0.00 | 0.46 | 0.40 | 85 | 1017.0 |
| 20260509194800 | 61 | 332 | 3.0 | 4.0 | 0.00 | 0.46 | 0.40 | 85 | 1017.0 |
| 20260509194300 | 61 | 304 | 2.0 | 3.0 | 0.00 | 0.46 | 0.40 | 85 | 1017.0 |
| 20260509193800 | 61 | 304 | 3.0 | 3.0 | 0.00 | 0.46 | 0.40 | 85 | 1016.8 |
| 20260509193300 | 61 | 309 | 3.0 | 4.0 | 0.00 | 0.46 | 0.40 | 85 | 1016.9 |
| 20260509192800 | 61 | 304 | 2.0 | 3.0 | 0.00 | 0.46 | 0.40 | 85 | 1017.0 |
| 20260509192300 | 61 | 304 | 3.0 | 4.0 | 0.00 | 0.46 | 0.40 | 84 | 1016.8 |
| 20260509191800 | 61 | 303 | 3.0 | 4.0 | 0.00 | 0.46 | 0.40 | 84 | 1016.8 |
| 20260509191300 | 61 | 296 | 2.0 | 4.0 | 0.00 | 0.46 | 0.40 | 84 | 1016.7 |
| 20260509190800 | 61 | 282 | 2.0 | 3.0 | 0.00 | 0.46 | 0.40 | 84 | 1016.6 |
| 20260509190300 | 61 | 246 | 1.0 | 3.0 | 0.00 | 0.46 | 0.40 | 84 | 1016.6 |
| 20260509185800 | 61 | 161 | 0.0 | 2.0 | 0.00 | 0.46 | 0.40 | 84 | 1016.5 |
| 20260509185300 | 61 | 161 | 0.0 | 0.0 | 0.00 | 0.46 | 0.40 | 83 | 1016.4 |
| 20260509184800 | 61 | 122 | 0.0 | 0.0 | 0.00 | 0.46 | 0.40 | 83 | 1016.5 |
| 20260509184300 | 62 | 122 | 1.0 | 2.0 | 0.00 | 0.46 | 0.40 | 83 | 1016.4 |
| 20260509183800 | 62 | 122 | 2.0 | 2.0 | 0.00 | 0.46 | 0.40 | 83 | 1016.5 |
| 20260509183300 | 62 | 122 | 2.0 | 3.0 | 0.00 | 0.46 | 0.40 | 82 | 1016.4 |
| 20260509182800 | 62 | 94 | 3.0 | 4.0 | 0.00 | 0.46 | 0.40 | 82 | 1016.5 |
| 20260509182300 | 62 | 94 | 3.0 | 4.0 | 0.00 | 0.46 | 0.40 | 82 | 1016.5 |
| 20260509181800 | 62 | 89 | 4.0 | 6.0 | 0.00 | 0.46 | 0.40 | 82 | 1016.6 |
| 20260509181300 | 63 | 83 | 5.0 | 8.0 | 0.00 | 0.46 | 0.40 | 81 | 1016.6 |
| 20260509180800 | 63 | 80 | 5.0 | 8.0 | 0.00 | 0.46 | 0.40 | 81 | 1016.5 |
| 20260509180300 | 64 | 82 | 5.0 | 7.0 | 0.00 | 0.46 | 0.40 | 80 | 1016.5 |
| 20260509175800 | 65 | 80 | 5.0 | 7.0 | 0.00 | 0.46 | 0.40 | 79 | 1016.7 |
| 20260509175300 | 65 | 73 | 4.0 | 5.0 | 0.00 | 0.46 | 0.40 | 79 | 1016.7 |
| 20260509174800 | 65 | 63 | 3.0 | 5.0 | 0.00 | 0.46 | 0.40 | 79 | 1016.5 |
| 20260509174300 | 66 | 63 | 1.0 | 4.0 | 0.00 | 0.46 | 0.40 | 79 | 1016.5 |
| 20260509173800 | 66 | 16 | 0.0 | 0.0 | 0.00 | 0.46 | 0.40 | 78 | 1016.4 |
| 20260509173300 | 66 | 315 | 0.0 | 0.0 | 0.00 | 0.46 | 0.40 | 78 | 1016.5 |
| 20260509172800 | 66 | 296 | 1.0 | 3.0 | 0.00 | 0.46 | 0.40 | 78 | 1016.5 |
| 20260509172300 | 66 | 298 | 2.0 | 4.0 | 0.00 | 0.46 | 0.40 | 77 | 1016.6 |
| 20260509171800 | 66 | 298 | 2.0 | 4.0 | 0.00 | 0.46 | 0.40 | 78 | 1016.6 |
| 20260509171300 | 66 | 297 | 3.0 | 4.0 | 0.00 | 0.46 | 0.40 | 78 | 1016.7 |
| 20260509170800 | 66 | 300 | 3.0 | 5.0 | 0.00 | 0.46 | 0.40 | 78 | 1016.5 |
| 20260509170300 | 66 | 302 | 3.0 | 4.0 | 0.00 | 0.46 | 0.40 | 78 | 1016.6 |
| 20260509165800 | 67 | 325 | 3.0 | 5.0 | 0.00 | 0.46 | 0.40 | 77 | 1016.7 |
| 20260509165300 | 67 | 309 | 3.0 | 5.0 | 0.00 | 0.46 | 0.40 | 77 | 1016.6 |
| 20260509164800 | 67 | 331 | 3.0 | 5.0 | 0.00 | 0.46 | 0.40 | 77 | 1016.5 |
| 20260509164300 | 67 | 313 | 4.0 | 4.0 | 0.00 | 0.46 | 0.40 | 76 | 1016.5 |
| 20260509163800 | 67 | 297 | 4.0 | 4.0 | 0.00 | 0.46 | 0.40 | 75 | 1016.4 |
| 20260509163300 | 67 | 306 | 5.0 | 6.0 | 0.00 | 0.46 | 0.40 | 75 | 1016.4 |
| 20260509162800 | 68 | 321 | 5.0 | 6.0 | 0.00 | 0.46 | 0.40 | 75 | 1016.4 |
| 20260509162300 | 68 | 286 | 5.0 | 8.0 | 0.00 | 0.46 | 0.40 | 75 | 1016.4 |
| 20260509161800 | 68 | 294 | 4.0 | 8.0 | 0.00 | 0.46 | 0.40 | 75 | 1016.4 |
| 20260509161300 | 68 | 322 | 3.0 | 8.0 | 0.00 | 0.46 | 0.40 | 74 | 1016.4 |
| 20260509160800 | 68 | 299 | 2.0 | 3.0 | 0.00 | 0.46 | 0.40 | 74 | 1016.3 |
| 20260509160300 | 69 | 288 | 1.0 | 4.0 | 0.00 | 0.46 | 0.40 | 73 | 1016.4 |
| 20260509155800 | 68 | 159 | 1.0 | 2.0 | 0.00 | 0.46 | 0.40 | 73 | 1016.4 |
| 20260509155300 | 68 | 159 | 1.0 | 4.0 | 0.00 | 0.46 | 0.40 | 73 | 1016.4 |
| 20260509154800 | 68 | 180 | 1.0 | 2.0 | 0.00 | 0.46 | 0.40 | 72 | 1016.3 |
| 20260509154300 | 69 | 184 | 2.0 | 4.0 | 0.00 | 0.46 | 0.40 | 72 | 1016.3 |
| 20260509153800 | 69 | 234 | 3.0 | 4.0 | 0.00 | 0.46 | 0.40 | 72 | 1016.3 |
| 20260509153300 | 69 | 276 | 2.0 | 4.0 | 0.00 | 0.46 | 0.40 | 73 | 1016.2 |
| 20260509152800 | 68 | 261 | 2.0 | 4.0 | 0.00 | 0.46 | 0.40 | 73 | 1016.2 |
| 20260509152300 | 69 | 314 | 3.0 | 5.0 | 0.00 | 0.46 | 0.40 | 73 | 1016.2 |
| 20260509151800 | 69 | 317 | 2.0 | 5.0 | 0.00 | 0.46 | 0.40 | 73 | 1016.1 |
| 20260509151300 | 68 | 308 | 2.0 | 6.0 | 0.00 | 0.46 | 0.40 | 73 | 1016.1 |
| 20260509150800 | 68 | 333 | 3.0 | 5.0 | 0.00 | 0.46 | 0.40 | 73 | 1016.2 |
| 20260509150300 | 68 | 267 | 2.0 | 6.0 | 0.00 | 0.46 | 0.40 | 74 | 1016.3 |
| 20260509145800 | 67 | 259 | 3.0 | 7.0 | 0.00 | 0.46 | 0.40 | 74 | 1016.3 |
| 20260509145300 | 67 | 307 | 5.0 | 8.0 | 0.00 | 0.46 | 0.40 | 74 | 1016.2 |
| 20260509144800 | 68 | 268 | 5.0 | 8.0 | 0.00 | 0.46 | 0.40 | 73 | 1016.2 |
| 20260509144300 | 68 | 273 | 5.0 | 8.0 | 0.00 | 0.46 | 0.40 | 74 | 1016.3 |
| 20260509143800 | 68 | 260 | 5.0 | 9.0 | 0.00 | 0.46 | 0.40 | 74 | 1016.2 |
| 20260509143300 | 67 | 250 | 5.0 | 9.0 | 0.00 | 0.46 | 0.40 | 75 | 1016.2 |
| 20260509142800 | 67 | 275 | 6.0 | 10.0 | 0.00 | 0.46 | 0.40 | 74 | 1016.3 |
| 20260509142300 | 67 | 234 | 6.0 | 11.0 | 0.00 | 0.46 | 0.40 | 75 | 1016.3 |
| 20260509141800 | 67 | 255 | 6.0 | 10.0 | 0.00 | 0.46 | 0.40 | 75 | 1016.4 |
| 20260509141300 | 67 | 254 | 7.0 | 11.0 | 0.00 | 0.46 | 0.40 | 76 | 1016.4 |
| 20260509140800 | 67 | 279 | 8.0 | 11.0 | 0.00 | 0.46 | 0.40 | 76 | 1016.3 |
| 20260509140300 | 67 | 300 | 7.0 | 11.0 | 0.00 | 0.46 | 0.40 | 76 | 1016.2 |
| 20260509135800 | 68 | 273 | 6.0 | 10.0 | 0.00 | 0.46 | 0.40 | 77 | 1016.3 |
| 20260509135300 | 67 | 303 | 7.0 | 11.0 | 0.00 | 0.46 | 0.40 | 77 | 1016.3 |
| 20260509134800 | 67 | 253 | 7.0 | 11.0 | 0.00 | 0.46 | 0.40 | 77 | 1016.3 |
| 20260509134300 | 66 | 280 | 5.0 | 10.0 | 0.00 | 0.46 | 0.40 | 79 | 1016.3 |
| 20260509133800 | 66 | 213 | 2.0 | 6.0 | 0.00 | 0.46 | 0.40 | 80 | 1016.4 |
| 20260509133300 | 66 | 227 | 2.0 | 4.0 | 0.00 | 0.46 | 0.40 | 80 | 1016.4 |
| 20260509132800 | 66 | 180 | 3.0 | 5.0 | 0.00 | 0.46 | 0.40 | 81 | 1016.3 |
| 20260509132300 | 65 | 114 | 4.0 | 5.0 | 0.00 | 0.46 | 0.40 | 83 | 1016.3 |
| 20260509131800 | 65 | 132 | 5.0 | 7.0 | 0.00 | 0.46 | 0.40 | 82 | 1016.3 |
| 20260509131300 | 65 | 128 | 5.0 | 8.0 | 0.00 | 0.46 | 0.40 | 83 | 1016.2 |
| 20260509130801 | 65 | 134 | 6.0 | 9.0 | 0.00 | 0.46 | 0.40 | 83 | 1016.3 |
| 20260509130300 | 65 | 117 | 6.0 | 8.0 | 0.00 | 0.46 | 0.40 | 83 | 1016.2 |
| 20260509125800 | 65 | 109 | 6.0 | 8.0 | 0.00 | 0.46 | 0.40 | 83 | 1016.3 |
| 20260509125300 | 66 | 104 | 6.0 | 9.0 | 0.00 | 0.46 | 0.40 | 82 | 1016.3 |
| 20260509124800 | 66 | 131 | 7.0 | 8.0 | 0.00 | 0.46 | 0.40 | 82 | 1016.4 |
| 20260509124301 | 65 | 111 | 7.0 | 11.0 | 0.00 | 0.46 | 0.40 | 81 | 1016.3 |
| 20260509123801 | 66 | 114 | 6.0 | 9.0 | 0.00 | 0.46 | 0.40 | 80 | 1016.2 |
| 20260509123300 | 66 | 98 | 5.0 | 10.0 | 0.00 | 0.46 | 0.40 | 79 | 1016.2 |
| 20260509122801 | 66 | 87 | 3.0 | 6.0 | 0.00 | 0.46 | 0.40 | 79 | 1016.4 |
| 20260509122300 | 66 | 113 | 2.0 | 8.0 | 0.00 | 0.46 | 0.40 | 78 | 1016.4 |
| 20260509121801 | 67 | 155 | 3.0 | 3.0 | 0.00 | 0.46 | 0.40 | 80 | 1016.3 |
| 20260509121300 | 66 | 132 | 4.0 | 4.0 | 0.00 | 0.46 | 0.40 | 80 | 1016.3 |
| 20260509120801 | 66 | 206 | 5.0 | 5.0 | 0.00 | 0.46 | 0.40 | 77 | 1016.3 |
| 20260509120301 | 67 | 239 | 3.0 | 8.0 | 0.00 | 0.46 | 0.40 | 77 | 1016.3 |
| 20260509115801 | 67 | 269 | 2.0 | 7.0 | 0.00 | 0.46 | 0.40 | 76 | 1016.3 |
| 20260509115301 | 67 | 293 | 2.0 | 3.0 | 0.00 | 0.46 | 0.40 | 76 | 1016.4 |
| 20260509114801 | 67 | 222 | 2.0 | 4.0 | 0.00 | 0.46 | 0.40 | 76 | 1016.2 |
| 20260509114301 | 67 | 224 | 3.0 | 4.0 | 0.00 | 0.46 | 0.40 | 76 | 1016.2 |
| 20260509113801 | 67 | 317 | 2.0 | 5.0 | 0.00 | 0.46 | 0.40 | 76 | 1016.3 |
| 20260509113301 | 67 | 153 | 1.0 | 6.0 | 0.00 | 0.46 | 0.40 | 76 | 1016.3 |
| 20260509112801 | 67 | 246 | 0.0 | 1.0 | 0.00 | 0.46 | 0.40 | 77 | 1016.2 |
| 20260509112301 | 66 | 226 | 2.0 | 4.0 | 0.00 | 0.46 | 0.40 | 77 | 1016.1 |
| 20260509111801 | 66 | 198 | 2.0 | 5.0 | 0.00 | 0.46 | 0.40 | 77 | 1016.2 |
| 20260509111301 | 66 | 183 | 2.0 | 5.0 | 0.00 | 0.46 | 0.40 | 78 | 1016.1 |
| 20260509110801 | 66 | 199 | 3.0 | 6.0 | 0.00 | 0.46 | 0.40 | 78 | 1016.1 |
| 20260509110301 | 66 | 160 | 3.0 | 6.0 | 0.00 | 0.46 | 0.40 | 80 | 1016.1 |
| 20260509105801 | 65 | 134 | 3.0 | 7.0 | 0.00 | 0.46 | 0.40 | 79 | 1016.1 |
| 20260509105301 | 65 | 114 | 3.0 | 4.0 | 0.00 | 0.46 | 0.40 | 80 | 1016.1 |
| 20260509104801 | 65 | 104 | 3.0 | 4.0 | 0.00 | 0.46 | 0.40 | 79 | 1016.2 |
| 20260509104301 | 65 | 76 | 2.0 | 5.0 | 0.00 | 0.46 | 0.40 | 79 | 1016.2 |
| 20260509103801 | 65 | 337 | 2.0 | 3.0 | 0.00 | 0.46 | 0.40 | 80 | 1016.2 |
| 20260509103301 | 65 | 351 | 2.0 | 5.0 | 0.00 | 0.46 | 0.40 | 80 | 1016.2 |
| 20260509102801 | 65 | 26 | 1.0 | 4.0 | 0.00 | 0.46 | 0.40 | 82 | 1016.2 |
| 20260509102301 | 65 | 178 | 1.0 | 2.0 | 0.00 | 0.46 | 0.40 | 83 | 1016.2 |
| 20260509101801 | 65 | 175 | 1.0 | 3.0 | 0.00 | 0.46 | 0.40 | 84 | 1016.2 |
| 20260509101301 | 64 | 101 | 1.0 | 3.0 | 0.00 | 0.46 | 0.40 | 85 | 1016.1 |
| 20260509100801 | 64 | 101 | 2.0 | 4.0 | 0.00 | 0.46 | 0.40 | 85 | 1016.2 |
| 20260509100301 | 64 | 112 | 2.0 | 4.0 | 0.00 | 0.46 | 0.40 | 85 | 1016.2 |
| 20260509095801 | 64 | 111 | 3.0 | 4.0 | 0.00 | 0.46 | 0.40 | 85 | 1016.2 |
| 20260509095301 | 64 | 71 | 2.0 | 4.0 | 0.00 | 0.46 | 0.40 | 86 | 1016.2 |
| 20260509094801 | 63 | 105 | 1.0 | 2.0 | 0.00 | 0.46 | 0.40 | 86 | 1016.3 |
| 20260509094301 | 63 | 130 | 2.0 | 3.0 | 0.00 | 0.46 | 0.40 | 86 | 1016.4 |
| 20260509093801 | 63 | 130 | 2.0 | 5.0 | 0.00 | 0.46 | 0.40 | 86 | 1016.4 |
| 20260509093301 | 63 | 176 | 3.0 | 6.0 | 0.00 | 0.46 | 0.40 | 87 | 1016.4 |
| 20260509092801 | 63 | 159 | 3.0 | 6.0 | 0.00 | 0.46 | 0.40 | 88 | 1016.5 |
| 20260509092301 | 63 | 73 | 3.0 | 5.0 | 0.00 | 0.46 | 0.40 | 89 | 1016.3 |
| 20260509091801 | 62 | 57 | 3.0 | 5.0 | 0.00 | 0.46 | 0.40 | 89 | 1016.3 |
| 20260509091301 | 62 | 106 | 2.0 | 6.0 | 0.00 | 0.46 | 0.40 | 90 | 1016.5 |
| 20260509090801 | 61 | 111 | 2.0 | 4.0 | 0.00 | 0.46 | 0.40 | 90 | 1016.4 |
| 20260509090301 | 61 | 117 | 2.0 | 4.0 | 0.00 | 0.46 | 0.40 | 90 | 1016.5 |
| 20260509085801 | 61 | 119 | 2.0 | 3.0 | 0.00 | 0.46 | 0.40 | 90 | 1016.5 |
| 20260509085301 | 61 | 145 | 3.0 | 4.0 | 0.00 | 0.46 | 0.40 | 91 | 1016.5 |
| 20260509084801 | 60 | 65 | 3.0 | 4.0 | 0.00 | 0.46 | 0.40 | 91 | 1016.4 |
| 20260509084301 | 60 | 80 | 2.0 | 4.0 | 0.00 | 0.46 | 0.40 | 92 | 1016.5 |
| 20260509083801 | 60 | 85 | 3.0 | 4.0 | 0.00 | 0.46 | 0.40 | 91 | 1016.6 |
| 20260509083301 | 60 | 95 | 4.0 | 7.0 | 0.00 | 0.46 | 0.40 | 92 | 1016.4 |
| 20260509082801 | 61 | 101 | 2.0 | 6.0 | 0.00 | 0.46 | 0.40 | 92 | 1016.5 |
| 20260509082301 | 61 | 85 | 2.0 | 3.0 | 0.00 | 0.46 | 0.40 | 92 | 1016.5 |
| 20260509081801 | 60 | 98 | 2.0 | 6.0 | 0.00 | 0.46 | 0.40 | 93 | 1016.4 |
| 20260509081301 | 60 | 106 | 2.0 | 4.0 | 0.00 | 0.46 | 0.40 | 92 | 1016.3 |
| 20260509080801 | 60 | 107 | 2.0 | 4.0 | 0.00 | 0.46 | 0.40 | 92 | 1016.4 |
| 20260509080301 | 59 | 78 | 2.0 | 4.0 | 0.00 | 0.46 | 0.40 | 93 | 1016.3 |
| 20260509075801 | 59 | 147 | 2.0 | 4.0 | 0.00 | 0.46 | 0.40 | 93 | 1016.3 |
| 20260509075301 | 59 | 108 | 3.0 | 4.0 | 0.00 | 0.46 | 0.40 | 93 | 1016.2 |
| 20260509074801 | 59 | 90 | 3.0 | 3.0 | 0.00 | 0.46 | 0.40 | 93 | 1016.2 |
| 20260509074301 | 59 | 102 | 2.0 | 3.0 | 0.00 | 0.46 | 0.40 | 93 | 1016.2 |
| 20260509073801 | 58 | 98 | 2.0 | 3.0 | 0.00 | 0.46 | 0.40 | 94 | 1016.2 |
| 20260509073301 | 58 | 109 | 2.0 | 3.0 | 0.00 | 0.46 | 0.40 | 94 | 1016.3 |
| 20260509072801 | 58 | 109 | 2.0 | 3.0 | 0.00 | 0.46 | 0.40 | 94 | 1016.2 |
| 20260509072301 | 58 | 111 | 2.0 | 3.0 | 0.00 | 0.46 | 0.40 | 94 | 1016.1 |
| 20260509071801 | 58 | 111 | 2.0 | 3.0 | 0.00 | 0.46 | 0.40 | 94 | 1016.1 |
| 20260509071301 | 58 | 111 | 2.0 | 3.0 | 0.00 | 0.46 | 0.40 | 94 | 1016.1 |